Location: Jaite
(41.2884°N, 81.5737°W)
Time: 06:16:37
(UTC+00:00)

Cosmos 1954 Rocket - Pass Details

Date: 15 November 2025
Orbit: 748 x 776 km, 74.0° (Epoch: 04 December)

Event Time Altitude Azimuth Distance (km) Brightness Sun altitude
Exits shadow 10:28:33 21° 334° (NNW) 1,663 5.4 -20.0°
Maximum altitude 10:32:04 73° 253° (WSW) 788 3.8 -19.3°
Drops below altitude 10° 10:37:10 10° 170° (S) 2,260 6.7 -18.4°
Sets 10:39:30 0° 168° (SSE) 3,179 7.5 -17.9°
